Weather History for Orr, MN

Change the Weather History Date:

Thursday, November 14, 2013

  Actual Average Record
Temperature  
Mean Temperature 30 °F -  
Max Temperature 35 °F 33 °F 55 °F (2001)
Min Temperature 26 °F 19 °F -4 °F (1996)
Degree Days  
Heating Degree Days 34    
Moisture  
Dew Point 27 °F    
Average Humidity 81    
Maximum Humidity 93    
Minimum Humidity 70    
Precipitation  
Precipitation 0.00 in - - ()
Sea Level Pressure  
Sea Level Pressure 29.71 in    
Wind  
Wind Speed 1 mph (SSW)    
Max Wind Speed 7 mph    
Max Gust Speed -    
Visibility 10 miles    
Events Rain , Snow    
Averages and records for this station are not official NWS values.
T = Trace of Precipitation, MM = Missing Value Source: NWS Daily Summary

Daily Weather History Graph

Daily Weather History Graph

Search for Another Location

Airport:

Trip Planner

Search our weather history database for the weather conditions in past years. The results will help you decide how hot, cold, wet, or windy it might be!

Date:

Astronomy

Nov. 14, 2013 Rise Set
Actual Time 7:16 AM CST 4:34 PM CST
Civil Twilight 6:42 AM CST 5:08 PM CST
Nautical Twilight 6:05 AM CST 5:46 PM CST
Astronomical Twilight 5:28 AM CST 6:22 PM CST
Moon 3:06 PM CST (11/14) 4:00 AM CST (11/14)
Length of Visible Light 10h 25m
Length of Day
9h 17m
Waxing Gibbous, 92% of the Moon is Illuminated
Nov 14
Waxing Gibbous
Nov 17
Full
Nov 25
Last Quarter
Dec 2
New
Dec 9
First Quarter

Hourly Weather History & Observations

Time (CST) Temp. Windchill Dew Point Humidity Pressure Visibility Wind Dir Wind Speed Gust Speed Precip Events Conditions
12:14 AM 35.6 °F - 28.4 °F 75% 29.72 in 10.0 mi Calm Calm - N/A   Clear
12:33 AM 33.8 °F - 28.4 °F 81% 29.72 in 10.0 mi Calm Calm - N/A   Clear
12:53 AM 33.8 °F - 28.4 °F 81% 29.71 in 10.0 mi Calm Calm - N/A   Clear
1:13 AM 32.0 °F - 26.6 °F 80% 29.71 in 10.0 mi Calm Calm - N/A   Clear
1:33 AM 32.0 °F - 26.6 °F 80% 29.71 in 10.0 mi Calm Calm - N/A   Clear
1:53 AM 30.2 °F - 26.6 °F 86% 29.72 in 10.0 mi Calm Calm - N/A   Clear
2:13 AM 32.0 °F - 26.6 °F 80% 29.72 in 10.0 mi Calm Calm - N/A   Clear
2:33 AM 30.2 °F - 26.6 °F 86% 29.71 in 10.0 mi Calm Calm - N/A   Clear
2:54 AM 30.2 °F - 26.6 °F 86% 29.71 in 10.0 mi Calm Calm - N/A   Clear
3:13 AM 30.2 °F - 26.6 °F 86% 29.72 in 10.0 mi Calm Calm - N/A   Clear
3:33 AM 30.2 °F 26.7 °F 26.6 °F 86% 29.72 in 10.0 mi WNW 3.5 mph - N/A   Clear
3:53 AM 30.2 °F - 26.6 °F 86% 29.72 in 10.0 mi Calm Calm - N/A   Clear
4:13 AM 30.2 °F - 26.6 °F 86% 29.72 in 10.0 mi Calm Calm - N/A   Scattered Clouds
4:33 AM 30.2 °F - 26.6 °F 86% 29.72 in 10.0 mi Calm Calm - N/A   Scattered Clouds
4:53 AM 30.2 °F - 26.6 °F 86% 29.73 in 10.0 mi Calm Calm - N/A   Clear
5:13 AM 30.2 °F 26.7 °F 26.6 °F 86% 29.73 in 10.0 mi NW 3.5 mph - N/A   Clear
5:33 AM 28.4 °F 24.6 °F 26.6 °F 93% 29.73 in 10.0 mi NW 3.5 mph - N/A   Clear
5:53 AM 26.6 °F - 24.8 °F 93% 29.73 in 10.0 mi Calm Calm - N/A   Clear
6:13 AM 28.4 °F 24.6 °F 26.6 °F 93% 29.73 in 10.0 mi NW 3.5 mph - N/A   Clear
6:33 AM 28.4 °F - 26.6 °F 93% 29.72 in 10.0 mi Calm Calm - N/A   Mostly Cloudy
6:53 AM 26.6 °F - 24.8 °F 93% 29.72 in 10.0 mi Calm Calm - N/A   Overcast
7:13 AM 28.4 °F - 26.6 °F 93% 29.73 in 10.0 mi Calm Calm - N/A   Overcast
7:33 AM 28.4 °F - 26.6 °F 93% 29.73 in 10.0 mi Calm Calm - N/A   Overcast
7:53 AM 28.4 °F - 26.6 °F 93% 29.74 in 10.0 mi Calm Calm - N/A   Overcast
8:13 AM 28.4 °F - 26.6 °F 93% 29.74 in 10.0 mi Calm Calm - N/A   Overcast
8:33 AM 30.2 °F - 26.6 °F 86% 29.76 in 10.0 mi Calm Calm - N/A   Overcast
8:54 AM 30.2 °F - 26.6 °F 86% 29.76 in 10.0 mi Calm Calm - N/A   Overcast
9:13 AM 30.2 °F - 26.6 °F 86% 29.76 in 10.0 mi Calm Calm - N/A   Overcast
9:33 AM 32.0 °F - 28.4 °F 87% 29.76 in 10.0 mi Calm Calm - N/A   Overcast
9:54 AM 32.0 °F - 26.6 °F 80% 29.76 in 10.0 mi Calm Calm - N/A   Overcast
10:13 AM 33.8 °F - 26.6 °F 75% 29.75 in 10.0 mi Calm Calm - N/A   Overcast
10:33 AM 33.8 °F - 26.6 °F 75% 29.76 in 10.0 mi Calm Calm - N/A   Overcast
10:53 AM 33.8 °F - 26.6 °F 75% 29.75 in 10.0 mi Calm Calm - N/A   Overcast
11:13 AM 33.8 °F - 26.6 °F 75% 29.74 in 10.0 mi Calm Calm - N/A   Overcast
11:33 AM 33.8 °F - 26.6 °F 75% 29.73 in 10.0 mi Calm Calm - N/A   Overcast
11:53 AM 35.6 °F - 26.6 °F 70% 29.72 in 10.0 mi Calm Calm - N/A   Overcast
12:13 PM 35.6 °F - 26.6 °F 70% 29.72 in 10.0 mi Calm Calm - N/A   Overcast
12:33 PM 33.8 °F - 26.6 °F 75% 29.73 in 10.0 mi Calm Calm - N/A   Overcast
12:53 PM 33.8 °F - 26.6 °F 75% 29.72 in 5.0 mi Calm Calm - N/A Snow Light Snow
1:13 PM 33.8 °F - 26.6 °F 75% 29.72 in 10.0 mi Calm Calm - N/A   Overcast
1:33 PM 33.8 °F - 26.6 °F 75% 29.71 in 10.0 mi Calm Calm - N/A   Overcast
1:53 PM 33.8 °F - 26.6 °F 75% 29.70 in 10.0 mi Calm Calm - N/A Rain Light Rain
2:13 PM 33.8 °F - 26.6 °F 75% 29.70 in 10.0 mi Calm Calm - N/A   Overcast
2:33 PM 33.8 °F - 26.6 °F 75% 29.70 in 10.0 mi Calm Calm - N/A   Overcast
2:53 PM 33.8 °F - 26.6 °F 75% 29.70 in 10.0 mi Calm Calm - N/A   Overcast
3:13 PM 33.8 °F - 26.6 °F 75% 29.71 in 10.0 mi Calm Calm - N/A   Overcast
3:33 PM 33.8 °F - 26.6 °F 75% 29.71 in 10.0 mi Calm Calm - N/A   Overcast
3:53 PM 33.8 °F - 26.6 °F 75% 29.70 in 10.0 mi Calm Calm - N/A   Overcast
4:13 PM 33.8 °F - 26.6 °F 75% 29.71 in 10.0 mi Calm Calm - N/A   Overcast
4:33 PM 33.8 °F - 26.6 °F 75% 29.70 in 10.0 mi Calm Calm - N/A   Overcast
4:53 PM 33.8 °F - 26.6 °F 75% 29.70 in 10.0 mi Calm Calm - N/A   Overcast
5:13 PM 33.8 °F - 26.6 °F 75% 29.70 in 10.0 mi Calm Calm - N/A   Overcast
5:33 PM 32.0 °F - 26.6 °F 80% 29.70 in 10.0 mi Calm Calm - N/A   Overcast
5:53 PM 32.0 °F - 26.6 °F 80% 29.71 in 10.0 mi Calm Calm - N/A   Overcast
6:13 PM 33.8 °F - 26.6 °F 75% 29.70 in 10.0 mi Calm Calm - N/A   Overcast
6:33 PM 33.8 °F - 26.6 °F 75% 29.70 in 10.0 mi Calm Calm - N/A   Overcast
6:53 PM 32.0 °F - 26.6 °F 80% 29.70 in 10.0 mi Calm Calm - N/A   Overcast
7:13 PM 32.0 °F - 26.6 °F 80% 29.70 in 10.0 mi Calm Calm - N/A   Overcast
7:33 PM 32.0 °F - 26.6 °F 80% 29.70 in 10.0 mi Calm Calm - N/A   Overcast
7:53 PM 32.0 °F - 26.6 °F 80% 29.70 in 10.0 mi Calm Calm - N/A   Overcast
8:13 PM 32.0 °F - 26.6 °F 80% 29.70 in 10.0 mi Calm Calm - N/A   Overcast
8:33 PM 32.0 °F - 26.6 °F 80% 29.69 in 10.0 mi Calm Calm - N/A   Overcast
8:53 PM 32.0 °F 28.7 °F 26.6 °F 80% 29.69 in 10.0 mi SSE 3.5 mph - N/A   Overcast
9:13 PM 33.8 °F 30.8 °F 26.6 °F 75% 29.69 in 10.0 mi South 3.5 mph - N/A   Overcast
9:33 PM 33.8 °F 29.6 °F 26.6 °F 75% 29.69 in 10.0 mi South 4.6 mph - N/A   Overcast
9:53 PM 33.8 °F 29.6 °F 26.6 °F 75% 29.68 in 10.0 mi SSE 4.6 mph - N/A   Overcast
10:13 PM 33.8 °F 29.6 °F 26.6 °F 75% 29.67 in 10.0 mi SSE 4.6 mph - N/A   Overcast
10:33 PM 33.8 °F 29.6 °F 26.6 °F 75% 29.66 in 10.0 mi SSE 4.6 mph - N/A   Overcast
10:53 PM 33.8 °F 30.8 °F 26.6 °F 75% 29.67 in 10.0 mi SSW 3.5 mph - N/A   Drizzle
11:13 PM 33.8 °F 27.7 °F 28.4 °F 81% 29.68 in 4.0 mi SW 6.9 mph - N/A Snow Light Snow
11:33 PM 33.8 °F 29.6 °F 30.2 °F 87% 29.67 in 10.0 mi SSW 4.6 mph - N/A   Overcast
11:53 PM 33.8 °F 30.8 °F 30.2 °F 87% 29.67 in 10.0 mi SSW 3.5 mph - N/A   Overcast